OBJECT R, 59113

Orbit data source: Space-Track

You're viewing an Uncataloged Satellite

Recently launched and/or uncataloged satellites may have evolving metadata. Metadata may include but not limited to: Owner, Maufacturer, Bus, Motor, and Mission.

OBJECT R, 59113 is a satellite in SSO that was launched on Mon, 04 Mar 2024 UTC via an FALCON 9 launch vehicle from the Air Force Western Test Range (AFWTR). Unknown objects in Earth's orbit typically refer to objects detected orbiting the Earth but have not yet been identified or cataloged. These objects could be anything from previously untracked satellites, spent rocket stages, debris from satellite collisions, or even natural meteoroids temporarily captured by Earth's gravity.

Not visible in the next 10 days
Identifier
59113, 2024-043R
Orbit
SSO
Country
Flag of TBDTBD
Related business
None
Manufacturer
Unknown
Mission
Operational Commercial Imaging
Bus & Motor
Unknown
Mass
Unknown
Launch date (UTC)
2024-03-04 (2 years ago)
Launch vehicle
FALCON 9
Launch site
Air Force Western Test Range (AFWTR)
Object type
Unknown
Shape & HBR
Box, 0.7 m
Radar Cross Section
1.360 m², Small (<0.1 m²)

Expand to show TLE details & history
Last TLE update: 1 day ago

TLE from 1 day ago
0 OBJECT R
1 59113U 24043R   25345.94112709  .00694023  21517-3  15267-2 0  9990
2 59113  97.5023 131.6722 0002846 289.8504  70.2466 15.98117999 99502
Epoch: 2025-12-11T22:35Z
TLE epoch observation values (Epoch: 2025-12-11T22:35:13.380Z)
Latitude
-0.00002°
Longitude
71.97657°
Altitude
282.193 km
Speed
7.738 km/s
True Right ascension
08h 46m 41s
True Declination
0° 00' 00"
Sunlit
Object was in full shadow at epoch
Visualization orbit readout
Latitude
Unknown
Longitude
Unknown
Altitude
Unknown
Speed
Unknown
Apparent Right ascension
Unknown
Apparent Declination
Unknown
Sunlit
N/A
Visualization observer readout
Local Sidereal Time
22:43:33
Azimuth
Unknown
Elevation
Unknown
Doppler factor
Unknown
Orbital elements
Apogee altitude
278.401 km
Perigee altitude
274.613 km
Semi-major axis
6,654.644 km
Eccentricity
0.00028
Inclination
97.5023°
RAAN
131.6722°
Arg. of periapsis
289.8504°
True anomaly
70.2773°
Mean anomaly
70.2466°
Eccentric anomaly
70.26195°
Mean motion
3.99812 °/min
Orbital period
90.04 mins
BSTAR
0.0015267
Loading maneuver chart data...
Computing Atmospheric mass density...
Loading historical data...
Loading historical data...
Loading historical data...
Loading historical data...
Loading historical data...
Loading historical data...
Loading historical data...

Documentation

Showing up to 5 results
|